TimeEDT,TemperatureF,Dew PointF,Humidity,Sea Level PressureIn,VisibilityMPH,Wind Direction,Wind SpeedMPH,Gust SpeedMPH,PrecipitationIn,Events,Conditions,WindDirDegrees,DateUTC
12:15 AM,48.2,46.2,93,30.25,10.0,Calm,Calm,-,N/A,,Clear,0,2013-10-09 04:15:00
12:35 AM,49.6,46.8,90,30.24,7.0,NNE,3.5,-,N/A,,Clear,30,2013-10-09 04:35:00
12:55 AM,50.5,46.6,86,30.24,7.0,NNE,3.5,-,N/A,,Clear,20,2013-10-09 04:55:00
1:15 AM,51.4,46.6,83,30.22,7.0,North,4.6,-,N/A,,Clear,10,2013-10-09 05:15:00
1:35 AM,52.3,46.6,81,30.22,7.0,North,4.6,-,N/A,,Clear,10,2013-10-09 05:35:00
1:55 AM,52.9,46.4,79,30.22,7.0,NNE,3.5,-,N/A,,Clear,30,2013-10-09 05:55:00
2:15 AM,52.7,46.8,80,30.23,5.0,NNE,4.6,-,N/A,,Haze,20,2013-10-09 06:15:00
2:35 AM,52.9,46.8,80,30.23,7.0,Calm,Calm,-,N/A,,Clear,0,2013-10-09 06:35:00
2:55 AM,52.7,46.9,81,30.23,7.0,North,3.5,-,N/A,,Clear,10,2013-10-09 06:55:00
3:15 AM,52.9,47.3,81,30.22,7.0,North,4.6,-,N/A,,Clear,10,2013-10-09 07:15:00
3:35 AM,52.7,47.3,82,30.22,7.0,Calm,Calm,-,N/A,,Clear,0,2013-10-09 07:35:00
3:55 AM,52.7,47.3,82,30.21,7.0,NNE,3.5,-,N/A,,Clear,20,2013-10-09 07:55:00
4:15 AM,52.5,47.3,82,30.21,7.0,North,3.5,-,N/A,,Clear,10,2013-10-09 08:15:00
4:35 AM,52.5,47.5,83,30.21,7.0,NNE,3.5,-,N/A,,Clear,20,2013-10-09 08:35:00
4:55 AM,52.3,47.5,84,30.20,7.0,NNE,3.5,-,N/A,,Clear,20,2013-10-09 08:55:00
5:15 AM,52.7,47.5,82,30.21,7.0,North,4.6,-,N/A,,Clear,10,2013-10-09 09:15:00
5:35 AM,52.9,47.5,82,30.21,7.0,North,4.6,-,N/A,,Clear,10,2013-10-09 09:35:00
5:55 AM,52.7,47.7,83,30.20,7.0,North,3.5,-,N/A,,Clear,10,2013-10-09 09:55:00
6:15 AM,52.9,47.7,82,30.21,7.0,North,3.5,-,N/A,,Clear,10,2013-10-09 10:15:00
6:35 AM,53.4,47.5,80,30.21,7.0,NNE,3.5,-,N/A,,Clear,20,2013-10-09 10:35:00
6:55 AM,53.2,47.3,80,30.22,7.0,North,3.5,-,N/A,,Clear,10,2013-10-09 10:55:00
7:15 AM,53.1,47.3,81,30.22,7.0,North,4.6,-,N/A,,Clear,10,2013-10-09 11:15:00
7:35 AM,53.6,46.9,78,30.22,7.0,Calm,Calm,-,N/A,,Clear,0,2013-10-09 11:35:00
7:55 AM,54.0,47.1,78,30.23,5.0,NNE,3.5,-,N/A,,Haze,20,2013-10-09 11:55:00
8:15 AM,54.7,47.3,76,30.23,5.0,NNE,5.8,-,N/A,,Haze,20,2013-10-09 12:15:00
8:35 AM,55.4,47.3,74,30.23,7.0,NNE,4.6,-,N/A,,Clear,20,2013-10-09 12:35:00
8:55 AM,56.3,47.3,72,30.24,7.0,NNE,5.8,-,N/A,,Scattered Clouds,30,2013-10-09 12:55:00
9:15 AM,56.7,47.5,71,30.25,7.0,NNE,6.9,-,N/A,,Scattered Clouds,30,2013-10-09 13:15:00
9:35 AM,57.0,47.5,70,30.25,7.0,NNE,6.9,-,N/A,,Clear,30,2013-10-09 13:35:00
9:55 AM,57.6,48.2,71,30.25,5.0,NNE,5.8,-,N/A,,Haze,30,2013-10-09 13:55:00
10:15 AM,58.3,48.6,70,30.25,4.0,NNE,4.6,-,N/A,,Haze,20,2013-10-09 14:15:00
10:35 AM,58.6,49.1,71,30.26,4.0,North,5.8,-,N/A,,Haze,10,2013-10-09 14:35:00
10:55 AM,58.5,49.1,71,30.26,7.0,NNE,3.5,-,N/A,,Overcast,20,2013-10-09 14:55:00
11:15 AM,59.5,49.6,70,30.25,5.0,NNE,3.5,-,N/A,,Haze,20,2013-10-09 15:15:00
11:35 AM,61.0,50.0,67,30.25,5.0,North,5.8,-,N/A,,Haze,10,2013-10-09 15:35:00
11:55 AM,61.7,50.4,66,30.25,7.0,NNE,9.2,16.1,N/A,,Scattered Clouds,20,2013-10-09 15:55:00
12:15 PM,62.2,50.7,66,30.24,5.0,NNE,6.9,17.3,N/A,,Haze,20,2013-10-09 16:15:00
12:35 PM,64.6,52.0,64,30.23,4.0,NNE,10.4,17.3,N/A,,Haze,30,2013-10-09 16:35:00
12:55 PM,64.0,51.4,64,30.23,5.0,North,6.9,-,N/A,,Haze,10,2013-10-09 16:55:00
1:15 PM,66.0,51.8,60,30.22,5.0,NNE,8.1,16.1,N/A,,Haze,20,2013-10-09 17:15:00
1:35 PM,66.2,52.2,61,30.21,10.0,NNE,10.4,16.1,N/A,,Clear,20,2013-10-09 17:35:00
1:55 PM,65.7,51.6,60,30.20,10.0,NE,12.7,19.6,N/A,,Clear,40,2013-10-09 17:55:00
2:15 PM,65.7,51.6,60,30.19,10.0,NE,8.1,16.1,N/A,,Clear,50,2013-10-09 18:15:00
2:35 PM,66.2,52.0,60,30.19,10.0,NNE,10.4,16.1,N/A,,Scattered Clouds,30,2013-10-09 18:35:00
2:55 PM,67.1,52.2,59,30.18,10.0,NE,10.4,18.4,N/A,,Scattered Clouds,50,2013-10-09 18:55:00
3:15 PM,66.4,52.0,60,30.18,10.0,NNE,9.2,19.6,N/A,,Scattered Clouds,30,2013-10-09 19:15:00
3:35 PM,66.7,51.4,58,30.18,10.0,NNE,6.9,-,N/A,,Scattered Clouds,20,2013-10-09 19:35:00
3:55 PM,67.6,51.8,57,30.18,10.0,NNE,11.5,16.1,N/A,,Scattered Clouds,20,2013-10-09 19:55:00
4:15 PM,67.6,48.4,50,30.18,10.0,NNE,11.5,16.1,N/A,,Clear,20,2013-10-09 20:15:00
4:55 PM,66.7,46.2,48,30.19,10.0,NNE,10.4,18.4,N/A,,Mostly Cloudy,30,2013-10-09 20:55:00
5:15 PM,63.7,49.5,60,30.18,10.0,NE,9.2,-,N/A,,Overcast,50,2013-10-09 21:15:00
5:35 PM,62.6,50.0,63,30.18,10.0,NE,5.8,-,N/A,,Overcast,40,2013-10-09 21:35:00
5:55 PM,62.1,50.0,65,30.18,10.0,NE,8.1,-,N/A,,Overcast,40,2013-10-09 21:55:00
6:15 PM,61.9,50.0,65,30.18,10.0,NE,9.2,-,N/A,,Overcast,40,2013-10-09 22:15:00
6:35 PM,61.7,50.0,65,30.18,10.0,NE,5.8,-,N/A,,Overcast,40,2013-10-09 22:35:00
6:55 PM,61.2,50.2,67,30.19,10.0,NE,5.8,-,N/A,,Overcast,40,2013-10-09 22:55:00
7:15 PM,60.4,50.0,68,30.19,10.0,NE,6.9,-,N/A,,Overcast,50,2013-10-09 23:15:00
7:55 PM,59.9,50.2,70,30.19,10.0,NE,6.9,-,N/A,,Overcast,40,2013-10-09 23:55:00
8:15 PM,59.2,49.8,71,30.19,10.0,NE,6.9,-,N/A,,Overcast,40,2013-10-10 00:15:00
8:35 PM,59.0,49.1,70,30.19,10.0,NNE,6.9,-,N/A,,Overcast,30,2013-10-10 00:35:00
8:55 PM,58.8,49.3,71,30.19,10.0,NNE,8.1,-,N/A,,Overcast,30,2013-10-10 00:55:00
9:15 PM,58.5,49.6,72,30.19,10.0,NNE,5.8,-,N/A,,Overcast,20,2013-10-10 01:15:00
9:35 PM,58.3,49.8,73,30.19,10.0,NNE,6.9,-,N/A,,Overcast,30,2013-10-10 01:35:00
9:55 PM,58.1,49.3,72,30.19,10.0,NNE,8.1,18.4,N/A,,Overcast,30,2013-10-10 01:55:00
10:15 PM,58.1,49.1,72,30.19,10.0,NNE,6.9,-,N/A,,Overcast,30,2013-10-10 02:15:00
10:35 PM,57.4,48.7,73,30.18,10.0,NNE,8.1,-,N/A,,Overcast,30,2013-10-10 02:35:00
10:55 PM,57.2,47.8,71,30.18,10.0,NNE,6.9,-,N/A,,Overcast,30,2013-10-10 02:55:00
11:15 PM,57.0,47.7,71,30.17,10.0,NNE,8.1,-,N/A,,Mostly Cloudy,20,2013-10-10 03:15:00
11:35 PM,56.3,47.7,73,30.17,10.0,NNE,4.6,-,N/A,,Scattered Clouds,30,2013-10-10 03:35:00
11:55 PM,56.3,47.7,73,30.16,10.0,North,3.5,-,N/A,,Mostly Cloudy,10,2013-10-10 03:55:00